Tracking 27380 objects as of 5-Jun-2023
HD Live streaming from Space Station
objects crossing your sky now

USA 7

Track USA 7 now!
USA 7 is classified as:


NORAD ID: 15453
Int'l Code: 1984-129A
Perigee: 36,177.9 km
Apogee: 36,214.0 km
Inclination: 13.3 °
Period: 1,456.7 minutes
Semi major axis: 42566 km
RCS: Unknown
Launch date: December 22, 1984
Source: United States (US)
Launch site: AIR FORCE EASTERN TEST RANGE (AFETR)
Your satellite tracking list
Your tracking list is empty




NASA's NSSDC Master Catalog

Two Line Element Set (TLE):
1 15453U 84129A   23156.61828602  .00000032  00000-0  00000-0 0  9997
2 15453  13.2919 329.5402 0004242 149.1347 246.8864  0.98853898 15104
Source of the keplerian elements: McCants